[[{"header":{"parameterUnit":"m.s-1","parameterCategory":1,"la1":30.2991,"la2":30.254,"lo1":-89.0895,"lo2":-89.0444,"dy":0.0017,"dx":0.0017,"nx":28,"ny":28,"refTime":"2024-12-20T09:00:00:Z","depth":0,"parameterNumber":2,"parameterNumberName":"U-component_of_WINDS"},"data":[0,0,0,0,0,0,0,0,0,0,0,0,0,0,0,0,0,0,0,0,0,0,0,0,0,0,0,0,0,0,0,0,0,0,0,0,0,0,0,0,0,0,0,0,0,0,0,0,0,0,0,0,0,0,0,0,0,0,1.505,1.505,0,1.5054,1.5054,1.5055,1.5013,1.5011,1.501,1.5009,1.5015,1.5017,1.5018,0,0,0,0,0,0,0,0,0,0,0,0,0,1.5008,1.5009,1.505,1.505,1.505,1.5054,1.5054,1.5055,1.5013,1.5011,1.501,1.5009,1.5015,1.5016,1.5018,0,0,0,0,0,0,0,0,0,0,0,0,0,1.5021,1.501,1.505,1.503,1.5028,1.5054,1.5054,1.5055,1.5013,1.5011,1.501,1.5008,1.5015,1.5016,1.5018,1.5065,0,0,1.5024,1.5025,0,0,0,0,0,0,0,0,1.502,1.5023,1.5033,1.5031,1.5029,1.5031,1.5042,1.5058,1.5013,1.5019,1.5009,1.5007,1.5022,1.5023,1.5028,1.5065,1.5065,1.5024,1.5025,1.5026,1.5027,0,0,0,0,0,0,0,1.502,1.5022,1.5052,1.5033,1.5031,1.5021,1.5021,1.5045,1.503,1.5018,1.5015,1.5016,1.5021,1.5026,1.5028,1.5066,1.5024,1.5026,1.5027,1.5028,1.5143,1.5145,0,0,0,0,0,0,1.5021,1.5022,1.5052,1.5052,1.502,1.5024,1.5023,1.5032,1.503,1.5028,1.5018,1.5014,1.5024,1.5026,1.5028,1.5083,1.5026,1.5028,1.5029,1.5141,1.5144,1.5146,0,0,0,0,0,0,1.502,1.5024,1.5051,1.5036,1.5039,1.5026,1.5036,1.5033,1.5039,1.5029,1.5027,1.5026,1.5023,1.5025,1.5056,1.5083,1.5029,1.503,1.5139,1.5142,1.5145,1.5194,0,0,0,0,0,0,1.5019,1.5024,1.5041,1.5037,1.504,1.5079,1.5038,1.5035,1.5042,1.5037,1.5036,1.5034,1.5021,1.5054,1.5058,1.5085,1.5032,1.5137,1.514,1.5144,1.519,1.5198,1.5205,0,0,0,0,0,1.5018,1.5055,1.5042,1.5046,1.506,1.508,1.5082,1.5066,1.5044,1.5061,1.5056,1.5034,1.508,1.5057,1.5062,1.5089,1.5135,1.5139,1.5144,1.5187,1.5197,1.5205,0,0,0,0,0,0,1.5062,1.5054,1.5039,1.5075,1.5079,1.5073,1.5094,1.5077,1.5087,1.5083,1.5063,1.5063,1.5098,1.5097,1.5072,1.5135,1.5103,1.5109,1.5135,1.5144,1.5152,1.5151,1.5033,0,0,0,0,0,1.5076,1.5092,1.5084,1.5117,1.512,1.5107,1.5115,1.5103,1.5106,1.5107,1.5104,1.5108,1.5123,1.5134,1.5147,1.519,1.519,1.5211,1.5219,1.5226,1.523,1.5255,1.5264,1.516,1.516,1.516,0,0,1.5105,1.5102,1.5114,1.5126,1.5127,1.5146,1.5108,1.5129,1.5143,1.511,1.5139,1.5137,1.5141,1.5179,1.5195,1.5179,1.5259,1.5231,1.5236,1.5238,1.526,1.527,1.5279,1.5163,1.5163,1.5162,0,0,1.5167,1.5166,1.5194,1.5197,1.5199,1.5191,1.5198,1.5195,1.5192,1.5221,1.5198,1.5214,1.5241,1.5245,1.525,1.5317,1.5298,1.5322,1.5362,1.5386,1.5394,1.5401,1.5426,1.5435,1.5327,1.5327,1.5327,0,1.5203,1.5229,1.5211,1.5233,1.524,1.5212,1.5241,1.5244,1.5251,1.5257,1.5239,1.5272,1.5273,1.5311,1.5328,1.5333,1.5341,1.5321,1.5394,1.5401,1.5408,1.5431,1.544,1.533,1.533,1.5329,1.5329,0,1.5273,1.5292,1.5314,1.5322,1.5331,1.5357,1.5344,1.5356,1.5343,1.5337,1.5368,1.5368,1.5382,1.539,1.5378,1.5428,1.5418,1.5397,1.5365,1.5421,1.5442,1.5451,1.5334,1.5333,1.5332,1.5331,0,0,1.5362,1.536,1.5369,1.5372,1.5374,1.5389,1.5414,1.5427,1.5438,1.5445,1.5466,1.549,1.5472,1.5478,1.5466,1.5487,1.5541,1.5464,1.5464,1.5479,1.5598,1.5613,1.5624,1.5529,1.5531,1.5532,1.5598,0,1.5423,1.5465,1.545,1.5494,1.5511,1.5486,1.5508,1.5512,1.5508,1.5524,1.5519,1.5537,1.5511,1.5515,1.5534,1.5531,1.5565,1.5526,1.555,1.5551,1.5549,1.5635,1.5651,1.5713,1.5606,1.5607,1.5608,0,1.5499,1.5508,1.5553,1.5554,1.5561,1.5581,1.5592,1.5607,1.5612,1.5608,1.5616,1.5601,1.5627,1.5595,1.5632,1.5606,1.5615,1.5615,1.5617,1.5619,1.5583,1.5639,1.5732,1.5741,1.5621,1.562,1.5619,0,1.556,1.5584,1.5614,1.5618,1.5619,1.5634,1.5635,1.5639,1.5648,1.5659,1.5665,1.5679,1.5687,1.5699,1.5688,1.5666,1.5727,1.5694,1.5725,1.5726,1.5739,1.5738,1.5835,1.5745,1.5745,1.5745,1.5744,0,1.5629,1.5658,1.5642,1.566,1.5693,1.5677,1.5709,1.5708,1.5712,1.5731,1.571,1.5728,1.5713,1.5731,1.5723,1.5755,1.5759,1.5757,1.5754,1.5759,1.5759,1.5764,1.576,1.5747,1.5747,1.5746,1.5746,0,1.5702,1.5692,1.5724,1.5722,1.5723,1.5747,1.5746,1.5764,1.5759,1.5784,1.5789,1.5781,1.5801,1.5792,1.5813,1.5807,1.5849,1.5841,1.5847,1.5845,1.5877,1.5874,1.598,1.5994,1.5896,1.5897,1.5897,0,1.5746,1.5768,1.5769,1.578,1.5783,1.5801,1.5811,1.5797,1.5808,1.5817,1.5834,1.5852,1.5866,1.5899,1.5896,1.5913,1.5905,1.5941,1.5907,1.5911,1.5906,1.5905,1.5907,1.5948,1.5949,1.595,1.595,0,1.5827,1.5822,1.5836,1.585,1.5862,1.5872,1.588,1.5891,1.5877,1.5891,1.5911,1.5922,1.5944,1.5963,1.5977,1.598,1.5964,1.5961,1.597,1.5974,1.5977,1.5976,1.5866,1.5959,1.5958,1.5957,1.5957,1.5957,1.5887,1.5906,1.591,1.5927,1.5932,1.5941,1.5958,1.5956,1.5972,1.5988,1.598,1.6003,1.601,1.6028,1.6033,1.6053,1.6038,1.605,1.6053,1.6056,1.6061,1.5974,1.6055,1.6055,1.6055,1.6055,1.6054,0,1.5967,1.5969,1.5985,1.5998,1.6012,1.5995,1.6004,1.6017,1.6038,1.6045,1.606,1.6084,1.6102,1.6102,1.6119,1.6135,1.6128,1.614,1.6139,1.614,1.6072,1.6063,1.6146,1.6146,1.6146,1.6146,1.6146,1.6145,1.601,1.6041,1.6037,1.6071,1.6072,1.6095,1.6102,1.6111,1.6116,1.6144,1.6159,1.6159,1.6163,1.6181,1.6198,1.6198,1.6205,1.622,1.6217,1.6154,1.6145,1.6136,1.6128,1.6222,1.6222,1.6284,1.6284,1.6285]},{"header":{"parameterUnit":"m.s-1","parameterCategory":1,"la1":30.2991,"la2":30.254,"lo1":-89.0895,"lo2":-89.0444,"dy":0.0017,"dx":0.0017,"nx":28,"ny":28,"refTime":"2024-12-20T09:00:00:Z","depth":0,"parameterNumber":3,"parameterNumberName":"V-component_of_WINDS"},"data":[0,0,0,0,0,0,0,0,0,0,0,0,0,0,0,0,0,0,0,0,0,0,0,0,0,0,0,0,0,0,0,0,0,0,0,0,0,0,0,0,0,0,0,0,0,0,0,0,0,0,0,0,0,0,0,0,0,0,-3.4781,-3.4783,0,-3.4904,-3.4906,-3.4907,-3.4861,-3.4858,-3.4855,-3.4852,-3.4979,-3.4985,-3.4991,0,0,0,0,0,0,0,0,0,0,0,0,0,-3.4509,-3.4514,-3.4781,-3.4783,-3.4784,-3.4904,-3.4906,-3.4907,-3.4861,-3.4858,-3.4854,-3.4851,-3.4977,-3.4984,-3.4992,0,0,0,0,0,0,0,0,0,0,0,0,0,-3.4629,-3.4516,-3.4781,-3.4776,-3.4776,-3.4904,-3.4906,-3.4908,-3.4862,-3.4858,-3.4853,-3.4849,-3.4975,-3.4984,-3.4993,-3.5133,0,0,-3.502,-3.5024,0,0,0,0,0,0,0,0,-3.4622,-3.4639,-3.4775,-3.4776,-3.4777,-3.4863,-3.4856,-3.4983,-3.4863,-3.483,-3.4852,-3.4847,-3.4944,-3.4955,-3.4988,-3.5139,-3.5144,-3.5021,-3.5026,-3.503,-3.5033,0,0,0,0,0,0,0,-3.4614,-3.4633,-3.483,-3.4777,-3.4778,-3.4768,-3.478,-3.488,-3.4909,-3.4832,-3.4829,-3.4844,-3.4944,-3.4979,-3.499,-3.5146,-3.5021,-3.5029,-3.5034,-3.5038,-3.5421,-3.5425,0,0,0,0,0,0,-3.4605,-3.4627,-3.4826,-3.4834,-3.4688,-3.4776,-3.479,-3.484,-3.4908,-3.4914,-3.4848,-3.4842,-3.4966,-3.498,-3.4995,-3.5165,-3.503,-3.5039,-3.5044,-3.5416,-3.5422,-3.5427,0,0,0,0,0,0,-3.4599,-3.4623,-3.4821,-3.4729,-3.4754,-3.4785,-3.4841,-3.4844,-3.4879,-3.4919,-3.4925,-3.4878,-3.4963,-3.4982,-3.5099,-3.5169,-3.5043,-3.5051,-3.541,-3.5418,-3.5424,-3.5506,0,0,0,0,0,0,-3.4592,-3.4621,-3.4674,-3.4731,-3.4759,-3.4923,-3.4846,-3.485,-3.4895,-3.4888,-3.495,-3.4956,-3.4961,-3.5086,-3.5108,-3.5179,-3.5058,-3.5404,-3.5414,-3.5422,-3.5497,-3.5515,-3.553,0,0,0,0,0,-3.4582,-3.4692,-3.4677,-3.4701,-3.4826,-3.4927,-3.4943,-3.4947,-3.4901,-3.4955,-3.4981,-3.4954,-3.5157,-3.5098,-3.5123,-3.5197,-3.54,-3.5411,-3.5421,-3.549,-3.5511,-3.553,0,0,0,0,0,0,-3.4643,-3.4699,-3.4683,-3.4815,-3.4867,-3.4919,-3.4987,-3.497,-3.5036,-3.5027,-3.5029,-3.5043,-3.5165,-3.5192,-3.5126,-3.5338,-3.5272,-3.5288,-3.5315,-3.5336,-3.5352,-3.5344,-3.5065,0,0,0,0,0,-3.4671,-3.4749,-3.4794,-3.4906,-3.4933,-3.4956,-3.5,-3.4999,-3.5052,-3.5074,-3.5109,-3.5162,-3.5238,-3.5289,-3.5361,-3.55,-3.5514,-3.5564,-3.558,-3.5594,-3.5608,-3.5686,-3.571,-3.5462,-3.5462,-3.5462,0,0,-3.4732,-3.4772,-3.4821,-3.4919,-3.4959,-3.504,-3.4974,-3.5062,-3.5123,-3.5087,-3.5201,-3.5228,-3.5288,-3.5418,-3.5477,-3.5445,-3.5679,-3.5607,-3.5618,-3.5625,-3.57,-3.5723,-3.5744,-3.5469,-3.5468,-3.5467,0,0,-3.4883,-3.492,-3.5019,-3.506,-3.5122,-3.5137,-3.516,-3.5216,-3.5233,-3.5347,-3.5322,-3.5395,-3.5525,-3.557,-3.5609,-3.5779,-3.5758,-3.5803,-3.5889,-3.5966,-3.5985,-3.6003,-3.6065,-3.6088,-3.5816,-3.5817,-3.5817,0,-3.495,-3.5071,-3.5072,-3.5162,-3.5207,-3.5179,-3.5279,-3.532,-3.5402,-3.5434,-3.5396,-3.5561,-3.56,-3.5741,-3.5782,-3.5814,-3.5843,-3.5796,-3.5982,-3.6,-3.6016,-3.6076,-3.6099,-3.5822,-3.5821,-3.5821,-3.582,0,-3.5151,-3.5235,-3.5307,-3.5388,-3.544,-3.5536,-3.5552,-3.5606,-3.56,-3.5619,-3.5736,-3.5781,-3.5863,-3.5896,-3.5891,-3.6037,-3.6016,-3.5981,-3.5915,-3.6045,-3.6101,-3.6124,-3.5829,-3.5828,-3.5826,-3.5825,0,0,-3.5344,-3.5425,-3.5452,-3.5489,-3.5555,-3.562,-3.5714,-3.5794,-3.5841,-3.5899,-3.5979,-3.6091,-3.606,-3.6105,-3.6105,-3.6171,-3.6306,-3.6128,-3.613,-3.6161,-3.6472,-3.65,-3.6526,-3.6291,-3.6295,-3.6299,-3.6468,0,-3.5502,-3.5668,-3.5672,-3.5824,-3.5903,-3.5878,-3.5961,-3.6011,-3.6032,-3.6102,-3.6125,-3.6205,-3.6156,-3.6184,-3.6248,-3.6276,-3.6369,-3.6263,-3.6368,-3.6371,-3.6355,-3.6555,-3.6584,-3.6742,-3.649,-3.6493,-3.6496,0,-3.5709,-3.5774,-3.5934,-3.5991,-3.6024,-3.6098,-3.6173,-3.624,-3.6297,-3.6307,-3.6359,-3.6349,-3.6447,-3.6377,-3.6513,-3.6441,-3.6484,-3.6504,-3.651,-3.6522,-3.6443,-3.6574,-3.6792,-3.6816,-3.653,-3.6528,-3.6525,0,-3.5837,-3.5964,-3.6076,-3.6109,-3.6177,-3.623,-3.6261,-3.6314,-3.6362,-3.6427,-3.6459,-3.6535,-3.6577,-3.6637,-3.6648,-3.6596,-3.6786,-3.6716,-3.6799,-3.6799,-3.6841,-3.6838,-3.7071,-3.6865,-3.6865,-3.6865,-3.6864,0,-3.6014,-3.6113,-3.6135,-3.6205,-3.6316,-3.632,-3.6431,-3.6457,-3.6505,-3.658,-3.6563,-3.6634,-3.6644,-3.6718,-3.6728,-3.684,-3.6859,-3.6871,-3.6873,-3.6874,-3.6873,-3.6904,-3.6894,-3.6871,-3.6869,-3.6868,-3.6867,0,-3.6175,-3.6194,-3.6315,-3.637,-3.6387,-3.6466,-3.6514,-3.6581,-3.66,-3.6696,-3.6719,-3.6749,-3.6835,-3.6853,-3.6955,-3.6961,-3.7096,-3.7086,-3.7077,-3.7077,-3.7159,-3.7152,-3.7421,-3.7457,-3.7226,-3.7229,-3.723,0,-3.6288,-3.6364,-3.6428,-3.6477,-3.6511,-3.659,-3.6639,-3.6647,-3.67,-3.6771,-3.6831,-3.6915,-3.6983,-3.7123,-3.7155,-3.7233,-3.7226,-3.7315,-3.7238,-3.7237,-3.723,-3.7227,-3.7235,-3.733,-3.7333,-3.7335,-3.7336,0,-3.6487,-3.6492,-3.6564,-3.6641,-3.6701,-3.6761,-3.6818,-3.686,-3.6875,-3.6935,-3.7024,-3.7077,-3.7182,-3.7267,-3.7346,-3.7378,-3.7362,-3.736,-3.7384,-3.7387,-3.738,-3.7387,-3.712,-3.7354,-3.7353,-3.7351,-3.735,-3.735,-3.6629,-3.6696,-3.6752,-3.6834,-3.6878,-3.6932,-3.6999,-3.7026,-3.71,-3.7186,-3.7186,-3.7284,-3.734,-3.7444,-3.7482,-3.7559,-3.7531,-3.7565,-3.7574,-3.7583,-3.7592,-3.7366,-3.7573,-3.7573,-3.7572,-3.7572,-3.7572,0,-3.6829,-3.6864,-3.6938,-3.702,-3.7084,-3.7062,-3.7124,-3.718,-3.7266,-3.732,-3.7388,-3.7491,-3.7574,-3.7612,-3.7694,-3.7749,-3.7743,-3.777,-3.7768,-3.7776,-3.7611,-3.7583,-3.7774,-3.7774,-3.7774,-3.7774,-3.7774,-3.7774,-3.694,-3.7054,-3.7067,-3.7202,-3.7237,-3.7332,-3.737,-3.7421,-3.7464,-3.758,-3.7649,-3.7673,-3.7722,-3.7808,-3.7883,-3.7892,-3.7925,-3.7956,-3.7962,-3.7808,-3.7787,-3.7768,-3.7742,-3.7962,-3.7963,-3.8121,-3.8122,-3.8123]}]]